sat.trackr.live / text

‹ back to catalog

ONEWEB-0661

NORAD 55821 · 2023-029AB

PAYLOAD ACTIVE UNKNOWN

§ Identity

Operator
Country
UK
Launch date
2023-03-09
Launch site
AFETR
Launch vehicle
Mass (kg)
RCS (m²)

Purposes: comms

External: N2YO · Heavens-Above · Gunter

§ Orbital elements

Epoch: 2026-05-25T04:10:31.046016Z

Period
109.55 min
Inclination
87.8931°
Eccentricity
0.0001885
Mean motion
13.14501474 rev/d
Perigee alt
1,204.4 km
Apogee alt
1,207.2 km
Semi-major
7,583.9 km
B*
5.3757e-4
RAAN
294.3345°
Arg perigee
87.5114°
Mean anomaly
272.6231°
Rev number
15,636

§ Raw data

ONEWEB-06611 55821U 23029AB  26145.17397044  .00000212  00000+0  53757-3 0  99942 55821  87.8931 294.3345 0001885  87.5114 272.6231 13.14501474156361

JSON: /api/v1/satellites/55821 · /tle

For live sub-satellite position, see the globe view (requires WebGL).

§ Visibility from observer

Set your observer location to see the next 7 days of passes ≥ 10°. The values pass through the URL so the page stays shareable.

No JS? Fill the form by hand. The geolocation button needs JavaScript.